Overview Statistics Trail Chart Weather Telemetry Raw packets
 

This is the latest recevied weather packets stored in our database for station/object DB0BGL. If no packets are shown the sender has not sent any weather packets the latest 10 day(s).

<< 5 6 7 8 9 10 11 >>
Time Temp. Humidity Pressure Rain* Wind** Luminosity Snow
1788342044 18.33° C 56% 0 hPa 0 mm - - -
1788341443 19.44° C 53% 0 hPa 0 mm - - -
1788340843 20° C 52% 0 hPa 0 mm - - -
1788340242 20° C 52% 0 hPa 0 mm - - -
1788339642 20.56° C 47% 0 hPa 0 mm - - -
1788339041 20.56° C 47% 0 hPa 0 mm - - -
1788338451 21.11° C 46% 0 hPa 0 mm - - -
1788337840 21.67° C 44% 0 hPa 0 mm - - -
1788337239 21.11° C 48% 0 hPa 0 mm - - -
1788336639 20.56° C 48% 0 hPa 0 mm - - -
1788336098 20.56° C 49% 0 hPa 0 mm - - -
1788336038 20.56° C 49% 0 hPa 0 mm - - -
1788335437 20° C 50% 0 hPa 0 mm - - -
1788334837 19.44° C 52% 0 hPa 0 mm - - -
1788334236 18.89° C 54% 0 hPa 0 mm - - -
1788333636 16.11° C 62% 0 hPa 0 mm - - -
1788333035 13.89° C 69% 0 hPa 0 mm - - -
1788332435 13.89° C 70% 0 hPa 0 mm - - -
1788331834 13.89° C 68% 0 hPa 0 mm - - -
1788331233 14.44° C 66% 0 hPa 0 mm - - -
1788330633 15° C 65% 0 hPa 0 mm - - -
1788330032 16.11° C 61% 0 hPa 0 mm - - -
1788329432 17.22° C 57% 0 hPa 0 mm - - -
1788328832 16.67° C 59% 0 hPa 0 mm - - -
1788328231 16.11° C 61% 0 hPa 0 mm - - -

* Rain latest hour (hover to see other rain measurements)
** Current wind speed in m/s (hover to see current wind gust speed)